Tracking 25734 objects as of 26-May-2022
HD Live streaming from Space Station
objects crossing your sky now

COSMOS 1275 DEB

Track COSMOS 1275 DEB now!
10-day predictions


NORAD ID: 42096
Int'l Code: 1981-053PG
Perigee: 809.5 km
Apogee: 884.4 km
Inclination: 82.7 °
Period: 101.7 minutes
Semi major axis: 7217 km
RCS: Unknown
Launch date: June 4, 1981
Source: Commonwealth of Independent States (former USSR) (CIS)
Launch site: PLESETSK MISSILE AND SPACE COMPLEX (PKMTR)

Note: This is SATELLITE DEBRIS
aabbcc
Your satellite tracking list
Your tracking list is empty




NASA's NSSDC Master Catalog

Two Line Element Set (TLE):
1 42096U 81053PG  22143.87939784  .00003641  00000-0  18247-2 0  9993
2 42096  82.7276   5.1923 0051870 220.1215 139.6129 14.15730263983642
Source of the keplerian elements: AFSPC